Temperature
8 8 8 8 9 9 9 9 10 10 10 10 10 10 10 10 10 10 10 10 10 10 10 10 10 10 10 10 10 10 9 9 9 9 9 9 9 9 9 9 9 9 9
7 8 8 8 8 8 9 9 9 9 9 9 9 9 9 9 9 9 9 9 9 9 9 10 10 9 9 9 9 9 9 9 9 9 9 8 9 9 9 9 9 9 9
7 7 7 8 8 8 8 8 9 9 9 9 9 9 9 9 9 9 9 9 9 9 9 9 9 9 9 9 9 9 9 8 8 8 8 8 8 8 9 9 9 9 9
6 7 7 7 7 7 8 8 8 8 8 8 8 8 8 8 8 8 8 8 8 8 8 8 8 8 8 8 8 8 8 8 8 8 7 7 7 7 7 8 8 8 8
6 6 6 7 7 7 7 7 7 8 8 7 8 8 8 8 8 8 8 8 8 8 8 8 8 8 8 8 8 7 7 7 7 7 7 7 6 6 6 7 7 8 8
5 6 6 6 6 6 6 7 7 7 7 7 7 7 7 7 7 7 7 7 7 7 7 7 7 7 7 7 7 7 7 7 7 7 6 6 6 6 6 6 6 6 7
5 5 5 5 5 6 6 6 6 6 6 6 6 7 7 7 7 7 7 7 7 7 7 6 6 6 6 6 6 6 6 6 6 6 6 6 6 6 5 5 5 5 6
5 5 5 5 5 5 5 5 5 6 6 6 6 6 6 6 6 6 6 6 6 6 6 6 6 6 5 5 5 5 6 6 6 5 5 5 5 5 5 5 5 4 5
4 4 4 4 4 5 5 5 5 5 5 5 5 5 6 6 5 5 5 5 5 5 5 5 5 5 5 5 5 5 5 5 5 5 5 5 5 5 5 5 4 4 4
4 4 4 4 4 4 4 4 4 5 5 5 5 5 5 5 5 4 5 5 5 5 5 5 4 4 4 4 4 4 4 4 4 4 4 4 4 4 4 4 4 4 4
4 4 4 3 3 4 4 4 4 4 4 4 4 4 4 4 4 4 4 4 4 4 4 4 4 4 4 4 4 4 4 4 4 4 4 4 4 4 4 4 4 4 3
3 3 3 3 3 3 4 4 4 4 4 4 3 3 3 3 3 3 3 4 3 3 4 3 3 3 3 3 3 3 3 3 3 3 3 4 4 3 3 3 3 3 3
3 3 3 3 3 3 3 3 3 3 3 3 3 3 3 3 3 3 3 3 3 3 3 3 3 3 3 3 3 2 3 3 3 3 3 3 3 3 3 3 3 3 3
2 2 2 3 3 3 3 3 3 3 3 2 2 2 2 2 2 2 2 2 2 2 2 2 2 2 2 2 2 2 2 2 2 2 2 3 3 3 3 2 2 2 2
2 2 2 2 2 2 2 2 2 2 2 2 2 2 2 2 2 2 2 2 2 1 1 1 1 2 2 2 2 2 2 2 2 2 2 2 2 2 2 2 2 2 2
2 2 2 2 2 2 2 2 2 2 2 2 2 1 1 1 1 1 1 1 1 1 1 1 1 1 1 1 1 1 1 1 1 1 1 1 1 1 1 1 1 1 1
1 1 1 2 2 2 2 1 1 1 1 1 1 1 1 1 1 1 1 1 0 0 0 0 0 0 1 1 1 1 0 1 1 1 1 1 1 1 1 1 1 1 1
1 1 1 1 1 1 1 1 1 1 1 1 0 0 0 0 0 0 0 -0 -0 -0 -0 -0 -0 -0 -0 -0 0 0 0 -0 0 0 0 0 0 0 0 0 0 1 1
1 1 1 1 1 1 1 1 1 1 1 0 0 0 -0 -0 -0 -0 -0 -0 -1 -1 -1 -1 -1 -1 -1 -1 -1 -0 -0 -0 -0 -0 -0 -0 -0 -0 -0 -0 -0 0 0
1 1 0 0 1 0 0 0 0 0 0 0 0 -0 -0 -0 -1 -1 -1 -1 -1 -1 -1 -1 -1 -1 -1 -1 -1 -1 -1 -1 -1 -1 -1 -1 -1 -1 -1 -1 -1 -0 -1
0 0 0 0 0 0 -0 -0 -0 0 0 -0 -0 -0 -1 -1 -1 -1 -1 -1 -2 -2 -1 -1 -1 -1 -1 -1 -1 -1 -1 -2 -1 -1 -1 -1 -1 -1 -1 -1 -1 -1 -1
0 -0 -0 -0 -0 -0 -0 -0 -0 -0 -1 -0 -1 -1 -1 -1 -1 -1 -2 -2 -2 -2 -2 -2 -2 -2 -2 -2 -1 -1 -2 -2 -2 -2 -2 -2 -2 -1 -1 -1 -1 -1 -1
-0 -1 -1 -1 -1 -1 -1 -1 -1 -1 -1 -1 -1 -1 -1 -1 -2 -2 -2 -2 -2 -2 -2 -2 -2 -2 -2 -2 -2 -2 -2 -2 -2 -2 -2 -2 -2 -2 -2 -2 -2 -2 -2
-1 -1 -1 -1 -1 -1 -1 -1 -1 -2 -2 -2 -2 -2 -2 -2 -2 -2 -2 -2 -2 -3 -3 -3 -3 -2 -2 -2 -2 -2 -2 -2 -2 -2 -2 -2 -2 -2 -2 -2 -2 -2 -3
-1 -1 -2 -2 -2 -2 -2 -2 -2 -2 -2 -2 -2 -2 -2 -3 -3 -3 -3 -3 -3 -3 -3 -3 -3 -3 -3 -3 -3 -3 -3 -3 -3 -3 -3 -3 -3 -3 -3 -3 -3 -3 -3
-2 -2 -2 -2 -2 -2 -2 -2 -2 -2 -2 -2 -2 -3 -3 -3 -3 -3 -3 -3 -3 -3 -3 -3 -3 -3 -3 -3 -3 -3 -3 -3 -3 -3 -4 -4 -4 -4 -4 -4 -4 -3 -4
Wind_Speed
4 3 2 2 1 1 2 2 2 1 1 1 1 1 1 1 1 2 3 2 2 2 2 2 1 1 1 1 0 1 1 0 0 1 1 2 1 1 2 2 1 1 2
3 2 2 1 2 3 3 2 2 2 2 2 2 1 2 1 1 2 3 3 2 1 1 2 1 1 1 1 1 1 1 0 1 1 1 1 2 2 2 1 2 2 2
4 3 2 2 2 2 3 2 2 2 2 2 2 2 2 2 1 2 1 3 2 1 2 1 1 1 1 1 2 2 2 1 1 1 2 2 3 2 2 2 2 2 2
3 2 2 1 2 2 2 2 2 2 2 2 3 3 2 1 1 1 0 1 2 1 1 0 0 1 1 1 2 2 1 2 1 1 0 1 1 1 2 2 2 2 2
3 2 2 1 1 1 1 1 2 2 2 2 3 3 2 2 1 1 1 1 1 2 2 2 1 1 2 2 2 1 1 2 2 2 1 1 0 1 2 3 2 2 2
1 0 0 1 2 2 1 1 2 2 2 2 2 3 3 2 1 1 1 1 1 1 1 1 1 1 2 2 2 3 3 3 3 2 2 2 2 2 2 3 3 3 3
1 0 1 1 1 1 1 1 1 1 1 1 1 2 3 3 3 3 3 2 2 2 2 2 2 2 2 2 2 2 3 3 3 4 3 3 3 1 2 3 3 3 3
1 1 1 1 0 0 1 1 1 1 1 0 1 2 2 2 2 2 2 3 3 3 3 3 2 3 2 2 2 2 3 3 3 4 4 3 3 3 3 2 2 3 3
0 1 1 0 1 1 1 1 1 0 1 1 1 2 1 1 2 2 2 2 3 3 2 3 3 3 3 3 3 3 3 3 4 4 3 3 3 3 3 3 3 4 4
1 1 1 1 1 1 1 1 1 1 1 1 2 2 2 2 2 2 2 3 3 3 3 3 3 3 3 3 3 3 3 3 4 3 4 4 3 3 3 3 4 4 5
2 2 2 1 1 1 1 1 1 1 1 2 2 2 2 2 2 2 3 3 3 3 3 3 4 4 4 4 4 4 3 4 4 4 4 5 3 3 3 3 3 3 4
2 1 1 1 1 1 2 2 2 2 3 2 2 2 2 2 2 3 3 3 3 3 3 3 4 4 4 4 5 5 4 5 5 5 5 5 4 4 4 3 4 4 4
1 1 1 2 2 3 3 3 3 3 3 2 2 2 2 3 3 3 3 3 3 3 3 3 4 4 5 5 5 6 5 6 6 5 5 5 5 5 4 5 5 4 4
2 2 2 3 3 3 3 4 4 3 2 2 2 3 3 4 4 4 3 3 3 3 3 3 4 4 5 6 5 6 6 6 6 6 6 6 6 6 6 5 6 5 5
4 3 3 3 3 3 3 3 3 3 3 3 3 4 4 4 3 3 3 3 3 3 3 4 4 4 5 5 5 5 6 6 6 6 6 6 7 7 6 5 5 5 5
5 4 4 4 4 4 4 4 4 3 3 3 4 4 3 4 4 4 3 3 3 3 3 4 4 5 5 7 8 6 5 5 6 6 5 5 7 7 8 9 8 7 6
6 5 5 5 5 5 4 5 5 3 3 4 4 4 4 4 4 4 3 3 3 3 4 4 4 5 6 9 9 8 5 5 5 5 5 5 6 6 6 7 9 8 10
6 5 5 5 5 5 4 4 4 4 4 5 5 5 4 4 4 4 4 4 4 4 4 5 5 5 7 9 9 8 5 5 5 6 6 6 6 6 6 5 6 6 6
6 5 5 5 5 5 4 4 4 4 4 5 6 5 5 5 5 5 5 4 4 4 4 5 5 5 7 9 9 7 4 4 6 5 5 6 6 8 7 5 5 5 5
4 4 4 4 4 4 3 3 5 4 5 6 6 5 5 5 6 5 5 4 4 4 5 5 5 6 6 9 9 7 4 4 5 4 5 7 8 8 7 5 5 6 5
4 3 3 4 5 4 3 4 5 6 6 5 5 5 5 5 5 4 4 4 4 4 5 5 5 6 7 8 9 8 4 4 4 4 4 5 8 8 8 6 5 6 4
4 3 3 5 5 4 3 4 6 6 4 4 4 4 4 4 3 3 4 4 4 4 5 5 5 5 6 7 8 9 7 5 4 5 4 5 8 8 7 5 5 5 3
4 3 3 5 5 4 3 4 6 5 4 4 4 4 4 3 3 3 3 3 4 4 5 5 5 5 4 6 9 9 8 7 4 4 6 7 7 6 4 4 4 3 2
4 3 3 4 5 5 4 4 5 4 3 4 4 3 3 3 3 3 3 4 4 4 5 5 5 5 4 4 4 4 4 5 4 3 4 5 4 3 3 2 2 1 2
3 3 3 4 6 6 5 4 4 3 3 3 3 3 3 3 2 3 3 4 5 5 5 5 4 4 5 6 7 5 3 2 2 1 1 1 1 1 1 1 2 1 2
3 4 4 5 5 5 6 5 4 3 3 3 3 2 2 2 2 2 3 5 5 7 7 7 6 6 7 7 7 7 6 4 2 1 1 2 2 2 2 2 2 2 2
Wind_Direction
274 289 277 246 211 158 147 145 108 103 108 126 147 159 145 127 96 55 53 79 84 99 103 92 110 122 153 164 145 80 95 49 62 64 351 327 286 245 237 218 199 211 225
291 290 276 203 189 177 172 159 149 149 151 167 172 172 149 130 108 43 39 43 61 79 111 99 129 114 150 131 139 93 104 84 115 111 83 328 316 281 249 224 210 226 232
242 247 224 195 185 179 186 176 165 150 151 132 111 79 83 81 57 27 17 11 27 58 59 75 138 144 152 189 195 168 150 189 256 120 136 157 237 289 289 246 234 232 232
244 237 218 205 202 207 196 168 152 135 144 140 139 128 138 157 193 204 250 348 11 26 40 31 190 191 192 206 219 186 177 162 202 268 258 192 175 188 290 299 268 255 244
216 216 211 219 210 188 179 172 145 132 140 148 157 162 171 187 176 146 184 239 337 359 4 354 316 233 216 212 211 214 202 191 194 199 194 216 279 188 201 270 296 302 265
222 222 16 45 31 45 75 118 150 149 150 155 170 184 189 184 172 184 209 236 250 280 323 328 304 270 245 227 219 215 219 217 204 208 200 187 197 212 207 238 271 281 279
180 130 72 67 50 45 45 53 108 116 141 153 194 220 211 199 202 209 215 227 238 262 261 276 270 268 259 242 223 216 231 228 221 219 222 218 226 216 214 233 263 276 283
154 183 213 192 194 3 38 53 65 41 37 348 254 260 227 212 220 227 227 230 236 241 254 262 265 269 263 250 231 228 228 231 236 243 235 231 232 225 224 223 240 276 279
177 232 256 234 222 248 259 237 234 309 329 311 306 294 273 242 237 236 238 237 238 241 248 256 253 255 253 246 230 230 236 230 227 238 242 248 242 234 237 230 228 233 261
327 311 286 271 263 250 261 274 258 258 287 293 289 299 303 290 262 242 248 251 254 253 245 250 251 249 246 244 238 235 237 233 234 228 230 244 248 241 240 238 239 235 243
277 275 282 282 282 298 288 283 285 292 289 285 286 291 288 286 275 261 253 253 256 252 242 243 248 249 248 242 235 236 228 230 240 239 235 243 248 251 249 243 238 239 243
278 265 271 296 303 292 283 278 280 273 267 269 271 268 272 274 271 272 268 262 259 260 253 250 250 256 252 242 236 239 235 230 234 237 237 246 244 247 246 241 241 242 241
293 290 288 288 281 275 271 268 267 266 267 261 264 275 279 274 267 266 269 266 263 271 273 258 257 261 257 246 238 235 232 232 236 235 235 242 236 242 242 242 244 247 251
295 291 285 280 282 280 278 273 270 263 264 265 263 264 265 264 262 261 262 264 261 260 266 268 262 261 260 251 242 237 233 232 236 236 238 241 235 237 236 239 239 242 248
303 297 292 288 288 290 286 276 274 272 268 262 262 262 264 265 262 261 262 260 252 260 264 270 271 266 262 255 247 240 237 234 238 242 243 246 250 251 245 248 241 237 243
297 295 291 290 287 280 279 278 274 270 262 258 262 264 258 259 260 259 259 258 259 262 265 266 273 272 270 273 265 252 235 235 240 245 249 252 252 257 260 263 259 249 243
287 285 284 281 280 277 270 268 267 270 262 259 261 261 254 254 259 261 254 255 255 258 261 264 268 271 275 283 275 264 244 236 242 245 247 255 256 258 254 258 261 256 254
282 285 285 287 288 285 281 275 273 264 260 260 257 254 248 250 257 251 245 249 255 257 259 261 262 269 277 284 278 272 248 242 242 241 240 247 251 251 253 253 258 256 255
272 275 278 280 282 281 277 275 271 265 262 259 253 250 245 248 254 251 248 249 252 258 259 262 260 266 279 284 278 271 245 248 249 245 243 247 248 258 261 253 257 268 275
287 289 298 297 286 282 284 276 271 264 260 262 259 253 247 244 247 247 248 252 255 258 260 265 261 261 270 281 277 267 245 254 259 255 250 257 260 261 258 246 245 255 264
290 289 296 291 282 284 283 275 274 265 268 274 273 262 252 247 243 245 246 246 255 261 262 268 269 264 269 278 272 264 246 247 258 259 256 257 268 267 267 264 250 256 263
297 298 299 297 296 288 271 276 273 276 286 285 276 263 259 255 246 240 246 244 245 253 260 267 275 269 271 279 271 265 266 263 250 254 255 261 271 274 273 271 269 269 269
287 293 291 300 307 299 269 270 284 294 295 286 277 268 265 263 251 242 250 252 246 252 263 267 274 281 274 274 274 270 271 273 266 257 267 274 275 278 275 280 280 275 250
288 297 305 305 306 306 295 274 287 292 284 278 278 276 264 269 272 261 252 251 247 252 262 269 276 284 284 277 274 262 261 270 279 276 269 275 276 285 289 279 284 280 250
291 292 292 292 297 304 303 297 288 283 277 276 274 277 272 266 270 275 268 265 252 250 260 260 260 268 273 278 284 282 264 251 251 258 264 257 259 272 271 282 276 269 266
283 289 290 291 297 305 305 305 299 278 268 278 277 276 278 278 278 283 301 293 288 284 280 278 277 276 278 288 287 286 281 279 271 265 229 241 242 248 252 256 263 265 258
Height
1482 1483 1484 1484 1485 1487 1488 1489 1491 1492 1494 1495 1496 1497 1499 1500 1502 1503 1504 1505 1506 1507 1508 1508 1509 1510 1510 1510 1511 1512 1513 1513 1514 1515 1515 1516 1516 1517 1518 1518 1519 1519 1520
1478 1479 1480 1481 1482 1484 1485 1487 1488 1490 1491 1493 1494 1495 1497 1498 1499 1500 1501 1502 1503 1504 1504 1505 1506 1506 1507 1507 1507 1508 1509 1510 1511 1511 1511 1512 1513 1512 1514 1514 1515 1516 1517
1475 1476 1477 1478 1480 1481 1482 1484 1485 1487 1488 1490 1492 1493 1494 1495 1496 1497 1498 1499 1500 1501 1502 1502 1503 1503 1504 1504 1504 1505 1506 1507 1508 1509 1510 1510 1509 1509 1509 1510 1511 1512 1512
1473 1474 1475 1476 1477 1479 1480 1482 1483 1484 1486 1488 1489 1489 1490 1491 1492 1493 1495 1496 1497 1498 1498 1499 1499 1500 1500 1500 1501 1502 1503 1504 1504 1505 1506 1508 1507 1507 1506 1506 1507 1508 1508
1471 1472 1473 1474 1475 1476 1478 1479 1481 1482 1483 1485 1486 1487 1488 1489 1490 1491 1492 1493 1494 1494 1494 1495 1495 1496 1496 1497 1498 1499 1499 1500 1501 1502 1502 1503 1504 1504 1504 1502 1503 1503 1504
1470 1470 1471 1472 1473 1475 1476 1477 1478 1479 1480 1482 1483 1484 1485 1485 1486 1487 1488 1489 1490 1490 1491 1491 1492 1492 1493 1493 1494 1495 1496 1497 1497 1498 1499 1499 1500 1500 1501 1500 1499 1499 1499
1468 1469 1469 1470 1471 1473 1474 1475 1475 1476 1478 1479 1480 1481 1481 1481 1482 1483 1483 1484 1485 1485 1486 1488 1488 1489 1489 1490 1491 1491 1492 1492 1493 1494 1495 1496 1496 1497 1497 1497 1496 1495 1494
1468 1468 1469 1470 1470 1471 1472 1473 1473 1473 1474 1475 1477 1477 1478 1478 1478 1479 1479 1480 1480 1481 1482 1483 1484 1485 1485 1486 1487 1487 1487 1488 1489 1490 1491 1492 1492 1493 1494 1494 1493 1491 1490
1467 1468 1468 1469 1469 1469 1470 1471 1471 1471 1471 1472 1473 1474 1474 1474 1474 1475 1476 1476 1476 1477 1478 1478 1479 1480 1481 1481 1482 1482 1483 1484 1485 1486 1486 1487 1488 1489 1489 1489 1489 1489 1487
1466 1467 1468 1468 1468 1469 1469 1469 1469 1468 1469 1469 1470 1470 1470 1471 1471 1471 1471 1472 1472 1473 1473 1474 1475 1475 1476 1476 1477 1478 1478 1479 1480 1481 1481 1482 1483 1483 1484 1484 1485 1484 1483
1466 1466 1467 1467 1467 1467 1467 1466 1466 1466 1466 1466 1466 1467 1467 1467 1467 1467 1467 1468 1468 1469 1469 1469 1470 1470 1471 1471 1472 1473 1473 1474 1475 1475 1476 1477 1477 1478 1479 1479 1479 1479 1479
1464 1465 1465 1465 1465 1465 1465 1464 1464 1464 1464 1464 1464 1464 1463 1463 1463 1463 1463 1464 1464 1464 1465 1465 1465 1466 1466 1467 1468 1468 1469 1469 1470 1470 1470 1471 1472 1472 1473 1473 1473 1473 1473
1463 1463 1462 1462 1462 1462 1462 1461 1461 1461 1460 1460 1460 1460 1459 1459 1459 1459 1459 1459 1460 1460 1460 1461 1461 1461 1462 1463 1463 1464 1464 1464 1465 1465 1465 1466 1466 1467 1467 1467 1468 1468 1467
1461 1460 1460 1459 1458 1458 1458 1457 1457 1457 1457 1456 1456 1456 1455 1456 1456 1456 1456 1456 1456 1456 1456 1456 1456 1457 1457 1458 1458 1458 1458 1459 1459 1460 1460 1460 1461 1461 1461 1462 1462 1462 1462
1458 1458 1457 1456 1456 1455 1454 1454 1454 1453 1453 1452 1452 1452 1452 1452 1452 1452 1452 1452 1452 1452 1451 1452 1452 1452 1452 1452 1453 1453 1453 1454 1454 1454 1454 1455 1455 1455 1456 1456 1456 1456 1456
1456 1455 1454 1454 1452 1451 1451 1450 1450 1449 1449 1449 1448 1448 1447 1447 1447 1447 1447 1447 1447 1447 1447 1447 1447 1447 1447 1447 1448 1448 1448 1448 1448 1448 1448 1449 1449 1450 1450 1450 1451 1451 1450
1454 1453 1452 1450 1449 1448 1447 1446 1446 1446 1445 1445 1444 1443 1443 1442 1443 1443 1443 1443 1442 1443 1443 1442 1442 1442 1442 1442 1443 1443 1443 1442 1443 1443 1443 1443 1443 1444 1444 1444 1444 1444 1444
1451 1450 1449 1447 1446 1445 1444 1443 1442 1441 1441 1440 1439 1439 1438 1438 1438 1438 1438 1438 1438 1438 1438 1438 1438 1437 1437 1437 1437 1437 1437 1437 1437 1437 1437 1437 1437 1438 1438 1438 1438 1437 1437
1448 1447 1446 1444 1443 1442 1440 1439 1438 1437 1436 1435 1434 1434 1434 1434 1434 1434 1434 1434 1434 1433 1434 1433 1433 1432 1432 1432 1432 1432 1431 1431 1431 1431 1431 1431 1431 1432 1432 1433 1432 1431 1431
1445 1444 1442 1441 1440 1438 1437 1435 1433 1432 1431 1430 1430 1430 1430 1430 1429 1429 1429 1429 1429 1429 1429 1429 1428 1428 1427 1427 1427 1427 1426 1425 1425 1425 1425 1426 1426 1427 1427 1427 1426 1425 1425
1443 1441 1439 1438 1436 1435 1433 1431 1430 1428 1427 1427 1426 1426 1426 1425 1425 1425 1425 1425 1425 1425 1424 1424 1423 1423 1423 1422 1422 1421 1421 1420 1419 1419 1420 1420 1421 1422 1422 1422 1421 1420 1420
1439 1438 1436 1435 1433 1432 1430 1428 1426 1425 1424 1423 1422 1422 1422 1422 1422 1421 1421 1421 1420 1420 1419 1419 1418 1418 1418 1417 1416 1416 1415 1415 1415 1415 1415 1416 1417 1417 1417 1416 1416 1416 1415
1436 1435 1433 1431 1430 1428 1427 1425 1424 1422 1421 1420 1419 1418 1418 1418 1418 1417 1416 1416 1416 1415 1414 1414 1413 1412 1412 1411 1411 1410 1410 1410 1410 1410 1410 1411 1412 1411 1411 1411 1411 1410 1410
1433 1432 1430 1428 1427 1425 1424 1422 1421 1419 1418 1417 1416 1415 1415 1414 1414 1413 1413 1412 1411 1410 1410 1409 1408 1407 1407 1407 1406 1405 1405 1405 1405 1405 1405 1406 1406 1406 1406 1406 1406 1405 1405
1431 1429 1427 1425 1424 1422 1421 1420 1418 1417 1415 1414 1413 1412 1412 1411 1410 1410 1409 1408 1407 1407 1406 1405 1404 1404 1403 1402 1402 1402 1401 1400 1400 1400 1400 1400 1401 1401 1401 1401 1401 1401 1400
1428 1426 1425 1423 1422 1420 1418 1417 1416 1414 1413 1412 1411 1409 1409 1408 1407 1406 1405 1405 1404 1403 1402 1401 1401 1400 1400 1399 1398 1398 1397 1397 1396 1396 1395 1396 1396 1396 1396 1396 1396 1396 1396